Battle Creek, Michigan, United States (49014)
Lat: 42.32N, Lon: 85.18W
Wx Zone: MIZ073
Local Info
Past Weather Observations for Today

NOTE: This archive is for the closest National Weather Service station to Battle Creek. Information may differ from the station used for current weather conditions.

Click here for Long-term Archive

Time Weather Temperature Dewpoint Humidity Pressure Winds Precip Visibility
22:53
Clear
19°F / -7°C 7°F / -14°C 58% 29.98 in
(1015 mb)
NE 13.8 mph
(NE 22 kph)
- 10SM
21:53
Clear
19°F / -7°C 9°F / -13°C 63% 29.98 in
(1015 mb)
NE 10.4 mph
(NE 17 kph)
- 10SM
20:53
Partly Cloudy
21°F / -6°C 7°F / -14°C 54% 29.95 in
(1014 mb)
ENE 11.5 mph
(ENE 19 kph)
- 10SM
19:53
Overcast
25°F / -4°C 10°F / -12°C 54% 29.95 in
(1014 mb)
ENE 15 mph
(ENE 24 kph)
- 10SM
18:53
Overcast
25°F / -4°C 10°F / -12°C 54% 29.92 in
(1013 mb)
ENE 12.7 mph
(ENE 20 kph)
- 10SM
17:53
Overcast
27°F / -3°C 12°F / -11°C 54% 29.92 in
(1013 mb)
NE 17.3 mph
(NE 28 kph)
- 10SM
16:53
Overcast
27°F / -3°C 12°F / -11°C 54% 29.89 in
(1012 mb)
ENE 9.2 mph
(ENE 15 kph)
- 10SM
15:53
Overcast
27°F / -3°C 14°F / -10°C 59% 29.86 in
(1011 mb)
NE 16.1 mph
(NE 26 kph)
- 10SM
14:53
Overcast
27°F / -3°C 12°F / -11°C 54% 29.83 in
(1010 mb)
NE 16.1 mph
(NE 26 kph)
- 10SM
13:53
Overcast
27°F / -3°C 14°F / -10°C 59% 29.83 in
(1010 mb)
ENE 16.1 mph
(ENE 26 kph)
- 10SM
12:53
Overcast
27°F / -3°C 14°F / -10°C 59% 29.83 in
(1010 mb)
ENE 18.4 mph
(ENE 30 kph)
0.00 in
(0.00 mm)
10SM
11:53
Overcast
Light Snow
28°F / -2°C 18°F / -8°C 64% 29.83 in
(1010 mb)
ENE 9.2 mph
(ENE 15 kph)
0.00 in
(0.00 mm)
9SM
11:00
Overcast
Light Snow
27°F / -3°C 19°F / -7°C 74% 29.83 in
(1010 mb)
ENE 12.7 mph
(ENE 20 kph)
0.00 in
(0.00 mm)
3SM
10:53
Overcast
Light Snow
27°F / -3°C 19°F / -7°C 74% 29.83 in
(1010 mb)
ENE 16.1 mph
(ENE 26 kph)
0.00 in
(0.00 mm)
2 1/2SM
10:40
Overcast
Light Snow
27°F / -3°C 19°F / -7°C 74% 29.83 in
(1010 mb)
NE 16.1 mph
(NE 26 kph)
0.00 in
(0.00 mm)
2SM
09:53
Overcast
Light Snow
27°F / -3°C 19°F / -7°C 74% 29.83 in
(1010 mb)
ENE 15 mph
(ENE 24 kph)
0.00 in
(0.00 mm)
7SM
08:53
Overcast
Light Snow
28°F / -2°C 21°F / -6°C 74% 29.8 in
(1009 mb)
NE 13.8 mph
(NE 22 kph)
0.00 in
(0.00 mm)
4SM
08:43
Overcast
Light Snow
28°F / -2°C 21°F / -6°C 74% 29.8 in
(1009 mb)
NE 16.1 mph
(NE 26 kph)
0.00 in
(0.00 mm)
4SM
08:35
Overcast
Light Snow
28°F / -2°C 21°F / -6°C 74% 29.8 in
(1009 mb)
NE 12.7 mph
(NE 20 kph)
0.00 in
(0.00 mm)
4SM
08:24
Overcast
Light Snow
28°F / -2°C 21°F / -6°C 74% 29.8 in
(1009 mb)
NE 15 mph
(NE 24 kph)
0.00 in
(0.00 mm)
2 1/2SM
08:03
Overcast
30°F / -1°C 23°F / -5°C 75% 29.77 in
(1008 mb)
NE 16.1 mph
(NE 26 kph)
- 10SM
07:53
Overcast
30°F / -1°C 25°F / -4°C 80% 29.77 in
(1008 mb)
NE 13.8 mph
(NE 22 kph)
- 10SM
07:44
Overcast
30°F / -1°C 25°F / -4°C 80% 29.77 in
(1008 mb)
NE 16.1 mph
(NE 26 kph)
- 10SM
06:53
Overcast
34°F / 1°C 28°F / -2°C 81% 29.74 in
(1007 mb)
NE 11.5 mph
(NE 19 kph)
- 10SM
05:53
Overcast
34°F / 1°C 28°F / -2°C 81% 29.74 in
(1007 mb)
NE 9.2 mph
(NE 15 kph)
- 10SM
04:53
Overcast
Hazy
36°F / 2°C 30°F / -1°C 81% 29.71 in
(1006 mb)
NE 9.2 mph
(NE 15 kph)
- 5SM
04:32
Overcast
Fog And Mist
36°F / 2°C 32°F / 0°C 87% 29.71 in
(1006 mb)
NE 5.8 mph
(NE 9 kph)
- 6SM
03:53
Overcast
37°F / 3°C 32°F / 0°C 81% 29.71 in
(1006 mb)
Calm - 7SM
02:53
Overcast
36°F / 2°C 30°F / -1°C 81% 29.68 in
(1005 mb)
Calm - 8SM
02:27
Overcast
37°F / 3°C 30°F / -1°C 75% 29.68 in
(1005 mb)
Calm - 9SM
02:20
Overcast
37°F / 3°C 30°F / -1°C 75% 29.68 in
(1005 mb)
Calm - 9SM
01:53
Overcast
37°F / 3°C 30°F / -1°C 75% 29.68 in
(1005 mb)
Calm - 9SM
00:53
Overcast
36°F / 2°C 30°F / -1°C 81% 29.68 in
(1005 mb)
SW 4.6 mph
(SW 7 kph)
- 9SM
Time Weather Temperature Dewpoint Humidity Pressure Winds Precip Visibility


Weather for websites

WeatherForYou.com, LLC is not responsible for any damages or problems caused by this service. Current weather conditions are obtained from the closest station including government and personal stations which may have varying degrees of accuracy. Weather forecasts are derived from the NOAA NDFD. Like all things, this site belongs to Jesus Christ... He just trusts me to maintain it. If you have any questions or comments email webmaster@weatherforyou.com

Copyright © 2015, WeatherForYou.com LLC. All rights reserved.